Flag for Canada Weather past 2 weeks in Paradise, Newfoundland and Labrador, Canada

Now
30 °F

Passing clouds.


Feels Like: 25 °F
Forecast: 31 / 51 °F
Wind: 5 mph from West

Location: St. John's

Current Time: Jun 2, 2015 at 3:26:19 AM

Latest Report: Jun 2, 2015 at 2:30 AM


Visibility: 15 mi

Pressure: 30.43 "Hg

Humidity: 93%

Dew point: 28 °F

Location of ParadiseLocation

Historic Weather in Paradise — Graph

°F

Paradise temperature yesterday

Maximum temperature yesterday: 50 °F (at 12:30 AM)
Minimum temperature yesterday: 34 °F (at 10:30 PM)
Average temperature yesterday: 39 °F

Past Weeks' High & Low Weather Summary

 TemperatureHumidityPressure
High73 °F (May 26, 2:30 PM)100% (May 18, 2:30 AM)30.44 "Hg (May 18, 2:30 AM)
Low30 °F (Jun 2, 2:30 AM)32% (May 22, 4:30 PM)29.49 "Hg (May 21, 9:30 AM)
Average49 °F81%30.05 "Hg
* Reported May 18 2:30 AM — Jun 2 2:30 AM, Paradise, Weather by CustomWeather, © 2015

Note: Actual official high and low records may vary slightly from our data, if they occured in-between our weather recording intervals... More about our weather records

Advertising

Paradise weather history for previous 24 hours

 ConditionsComfort  
Time TempWeatherWind HumidityBarometerVisibility
2:30 AM
Tue, Jun 2
30 °FPassing clouds.5 mph93%30.43 "Hg15 mi
1:30 AM32 °FPassing clouds.3 mph87%30.43 "Hg15 mi
12:30 AM34 °FPassing clouds.3 mph81%30.44 "Hg15 mi
11:30 PM
Mon, Jun 1
34 °FPartly cloudy.7 mph87%30.43 "Hg15 mi
10:30 PM34 °FMostly cloudy.6 mph87%30.44 "Hg15 mi
9:30 PM36 °FPassing clouds.7 mph75%30.44 "Hg15 mi
8:30 PM36 °FPartly sunny.7 mph75%30.43 "Hg15 mi
7:30 PM41 °FMostly cloudy.8 mph66%30.44 "Hg15 mi
6:30 PM37 °FMostly cloudy.9 mph65%30.44 "Hg15 mi
5:30 PM39 °FOvercast.9 mph65%30.44 "Hg15 mi
4:30 PM39 °FOvercast.12 mph56%30.44 "Hg15 mi
3:30 PM39 °FOvercast.13 mph65%30.43 "Hg15 mi
2:30 PM41 °FOvercast.13 mph61%30.44 "Hg15 mi
1:30 PM41 °FOvercast.16 mph61%30.43 "Hg15 mi
12:30 PM41 °FOvercast.15 mph61%30.43 "Hg15 mi
11:30 AM41 °FPartly sunny.16 mph57%30.43 "Hg15 mi
10:30 AM41 °FPartly sunny.17 mph57%30.41 "Hg15 mi
9:30 AM41 °FBroken clouds.18 mph57%30.39 "Hg15 mi
8:30 AM39 °FPartly sunny.13 mph75%30.38 "Hg15 mi
7:30 AM37 °FPartly sunny.10 mph52%30.36 "Hg15 mi
6:30 AM37 °FMostly cloudy.16 mph81%30.34 "Hg15 mi
5:30 AM37 °FMostly cloudy.14 mph75%30.32 "Hg15 mi
4:30 AM37 °FMostly cloudy.12 mph75%30.29 "Hg15 mi
3:30 AM37 °FOvercast.16 mph75%30.27 "Hg15 mi
Weather by CustomWeather, © 2015

See weather overviewHow to use our weather pages